Location: Solstice Park, West Seattle
(47.5363°N, 122.3905°W)
Time: 09:27:33
(UTC-07:00)

ISS - Pass Details

Date: 17 May 2021
Orbit: 417 x 422 km, 51.6° (Epoch: 18 June)

Event Time Altitude Azimuth Distance (km) Brightness Sun altitude
Rises 22:21:10 0° 252° (WSW) 2,358 0.3 -13.4°
Reaches altitude 10° 22:23:16 10° 254° (WSW) 1,498 -0.6 -13.6°
Maximum altitude 22:26:37 70° 339° (NNW) 450 -3.5 -13.9°
Drops below altitude 10° 22:30:00 10° 64° (ENE) 1,506 -1.1 -14.3°
Sets 22:32:07 0° 67° (ENE) 2,373 -0.1 -14.5°
